sat.trackr.live / text

‹ back to catalog

STARLINK-11741 [DTC]

NORAD 64064 · 2025-107A

PAYLOAD ACTIVE UNKNOWN

§ Identity

Operator
Country
US
Launch date
2025-05-21
Launch site
AFETR
Launch vehicle
Mass (kg)
RCS (m²)

Purposes: comms

External: N2YO · Heavens-Above · Gunter

§ Orbital elements

Epoch: 2026-05-24T23:59:40.159104Z

Period
91.67 min
Inclination
43.0014°
Eccentricity
0.0001447
Mean motion
15.70862468 rev/d
Perigee alt
355.5 km
Apogee alt
357.4 km
Semi-major
6,734.6 km
B*
1.4438e-3
RAAN
358.8022°
Arg perigee
276.4108°
Mean anomaly
83.6594°
Rev number
5,929

§ Raw data

STARLINK-11741 [DTC]1 64064U 25107A   26144.99977036  .00189265  00000+0  14438-2 0  99942 64064  43.0014 358.8022 0001447 276.4108  83.6594 15.70862468 59293

JSON: /api/v1/satellites/64064 · /tle

For live sub-satellite position, see the globe view (requires WebGL).

§ Visibility from observer

Set your observer location to see the next 7 days of passes ≥ 10°. The values pass through the URL so the page stays shareable.

No JS? Fill the form by hand. The geolocation button needs JavaScript.